Theta_e
305 306 308 310 310 312 312 313 313 315 314 314 313 312 311 308 307 305 301 301 301 300 298 297 296 295 294 293 292 291 290 288 288 288 288 287 287 287 287 287 287 287 287 286 286 287 287 286 286 286 286 286 286 286 286 286 286 286 286 286 285 285 285 283 282 282 285 286 285 285 285 285 284 286 284 285 285 286 286 286 286 285 285 285 285
305 306 307 309 309 310 311 311 312 312 311 310 310 308 306 304 302 300 300 299 300 299 298 295 294 294 294 293 292 291 290 288 288 288 286 286 286 286 287 287 286 286 287 286 286 286 286 285 285 285 286 285 285 285 285 285 285 284 285 284 284 284 285 283 282 281 281 284 283 285 284 285 283 285 284 283 284 285 284 285 285 285 285 285 285
305 306 306 307 307 307 307 307 307 307 307 305 304 302 301 299 299 300 297 295 295 297 295 294 294 293 292 291 290 289 289 288 287 287 287 286 286 286 287 286 286 286 286 285 285 285 285 284 284 285 285 284 284 284 284 284 284 284 283 284 283 283 284 283 282 281 281 281 283 282 283 283 283 283 284 284 284 284 283 283 284 284 285 285 285
304 304 305 304 303 302 302 301 303 303 303 301 300 298 298 297 297 297 295 294 293 292 293 292 292 292 291 289 289 288 288 287 287 287 287 287 286 286 286 286 286 285 285 285 285 284 284 283 283 284 284 283 282 283 283 284 283 283 283 283 283 282 283 283 283 281 280 280 282 282 282 282 282 284 284 284 284 283 283 283 284 284 284 284 284
301 300 299 299 298 298 298 299 300 299 298 297 296 295 294 294 293 293 292 292 292 292 291 291 291 291 290 289 288 287 287 287 287 286 286 286 286 286 285 285 285 285 285 284 284 284 283 283 283 283 283 282 282 282 282 282 282 282 282 282 282 282 282 282 282 282 280 279 280 282 282 282 283 283 284 282 282 282 283 282 283 283 283 284 284
298 298 297 297 297 296 296 297 297 296 295 294 293 293 292 292 292 292 292 292 291 291 290 290 290 289 288 288 287 287 287 286 286 286 285 285 285 285 285 285 284 284 284 284 284 283 283 282 282 282 282 282 281 281 282 281 282 281 281 281 281 281 281 281 282 281 280 280 280 280 282 281 281 282 283 282 281 280 281 282 282 282 282 282 282
296 297 296 296 296 295 294 294 295 293 292 292 292 292 292 291 291 292 292 291 291 290 289 288 287 287 287 286 286 286 286 286 285 285 285 285 285 284 284 284 283 283 283 283 283 283 282 282 282 282 282 282 282 281 281 281 281 281 281 281 281 281 281 281 281 280 280 279 280 280 280 281 281 280 282 282 282 281 279 279 279 281 281 281 281
295 295 295 295 294 293 292 292 292 293 292 292 292 292 291 291 291 290 290 290 289 288 287 287 286 286 285 285 285 285 285 285 285 285 285 284 284 284 283 283 282 282 282 282 282 282 282 282 282 282 282 282 282 282 282 281 281 280 281 281 281 281 280 280 280 280 279 279 279 279 280 279 280 281 282 281 279 279 280 279 277 278 279 280 281
295 294 293 293 292 291 291 291 291 290 290 290 290 290 290 289 289 288 288 288 287 287 286 285 284 284 285 285 285 285 285 285 285 284 284 284 284 283 283 282 282 281 281 281 281 281 281 281 282 282 282 282 282 282 282 282 281 280 281 281 281 281 280 280 280 279 279 279 278 279 279 279 279 279 278 278 277 277 279 279 278 279 279 279 280
294 294 293 292 291 291 290 290 290 290 290 290 289 289 288 288 287 287 286 286 285 285 284 284 284 284 284 284 284 285 284 285 284 285 285 283 283 283 282 282 281 281 280 280 280 280 280 281 281 281 281 281 281 281 282 282 282 282 282 282 282 281 280 279 279 279 278 278 278 278 277 277 278 278 277 278 279 279 278 278 277 278 279 278 278
292 292 293 291 291 290 290 289 290 289 290 289 288 288 287 287 286 285 285 284 284 284 284 284 284 284 284 284 284 285 285 285 286 287 286 285 283 282 282 281 281 281 280 280 279 279 280 280 280 280 280 279 280 281 281 282 282 282 283 283 283 281 280 279 279 279 278 277 278 277 277 276 277 278 278 278 279 278 278 278 278 277 276 274 273
293 292 291 291 290 290 290 290 289 289 288 288 287 287 286 286 285 285 284 283 283 283 283 283 283 284 284 285 285 285 285 286 288 287 286 285 283 282 282 281 281 280 280 280 279 279 279 279 279 279 279 279 279 279 279 280 281 282 283 282 282 281 282 280 279 278 278 277 276 277 276 276 277 277 278 278 278 278 278 278 277 275 274 274 274
293 292 291 290 290 290 290 289 289 288 288 287 287 286 285 285 284 284 283 283 283 282 282 282 283 283 284 285 285 286 286 288 287 287 286 285 284 282 281 281 280 280 280 279 279 279 279 278 278 278 278 279 279 279 279 280 281 282 282 281 280 280 281 281 281 280 279 277 276 276 277 277 276 277 279 278 279 277 276 276 276 276 275 274 274
293 293 291 290 290 289 289 288 288 288 287 286 286 285 285 285 284 283 282 282 282 281 281 282 282 283 284 285 285 286 286 287 287 287 286 285 284 282 281 280 280 280 279 279 279 278 278 278 278 278 278 278 278 279 280 281 281 281 280 280 279 279 280 280 279 279 279 278 277 276 278 279 277 279 280 280 277 275 275 275 276 275 274 274 275
292 292 291 290 289 289 288 288 287 287 286 285 285 285 284 283 282 282 282 282 281 281 281 281 281 282 283 284 285 285 285 287 287 286 286 285 284 282 280 280 280 279 279 279 278 278 278 278 278 277 278 278 279 281 282 282 281 279 278 278 278 279 278 278 278 278 279 279 279 279 279 280 280 279 279 278 278 277 277 276 276 275 275 277 277
292 291 290 289 289 288 288 288 287 286 285 284 284 284 283 282 281 281 281 281 280 280 280 281 281 281 282 283 284 284 285 286 286 286 285 285 283 280 280 279 279 279 278 278 278 278 278 278 277 277 277 278 279 282 283 282 280 278 277 277 277 277 277 278 279 280 280 280 280 280 279 279 280 279 279 278 278 278 278 277 276 276 274 273 273
291 291 290 289 289 288 288 287 286 285 284 284 283 283 282 280 280 280 280 280 279 279 279 279 280 281 281 282 283 284 285 285 286 285 285 284 281 279 279 279 279 278 278 278 278 278 278 278 278 277 278 278 280 283 283 281 278 277 277 276 275 274 275 278 279 280 279 279 278 278 279 279 279 279 279 279 279 278 276 274 273 274 272 271 272
291 290 290 289 288 288 287 287 286 285 284 284 283 282 281 280 280 280 280 279 278 278 278 279 279 280 281 281 282 283 283 284 285 285 284 283 280 278 279 279 278 278 277 278 278 278 278 278 278 278 278 279 281 282 282 280 278 277 276 274 273 274 276 278 277 276 276 275 275 275 276 276 277 277 278 278 278 278 274 272 273 273 272 272 271
289 289 289 288 288 287 287 286 286 285 284 284 283 281 280 279 279 279 279 279 278 278 278 278 277 278 279 280 280 282 282 283 285 284 283 282 280 279 279 278 277 277 277 277 277 277 277 278 278 279 279 281 282 281 281 280 278 277 275 274 273 274 276 276 274 272 271 270 270 271 272 273 274 274 275 276 277 277 276 274 274 273 272 272 272
287 288 287 287 286 286 286 285 285 284 284 283 282 281 279 278 278 278 278 278 277 277 277 277 276 276 277 278 279 281 282 282 283 284 283 282 281 279 279 277 276 276 277 277 276 276 276 277 278 280 281 281 281 280 280 280 278 276 275 274 274 273 276 273 271 270 269 269 269 270 271 272 272 273 273 274 275 275 275 275 275 274 273 273 273
285 285 285 284 284 285 284 284 284 283 283 281 280 278 278 278 277 277 277 276 276 276 275 275 275 275 276 276 277 278 279 281 282 283 283 282 282 280 278 278 278 277 276 276 276 275 276 276 277 279 280 280 279 279 279 279 278 276 276 275 275 276 275 270 268 269 268 268 268 269 270 271 271 272 272 273 273 274 274 275 275 275 274 273 273
284 284 283 283 282 282 281 281 282 281 279 279 278 277 276 277 277 277 277 276 275 274 274 274 274 274 274 274 275 276 278 280 282 283 283 283 282 281 278 278 278 277 276 275 275 275 275 276 277 279 280 279 278 278 278 278 277 275 276 276 276 275 271 268 267 268 267 268 269 269 269 269 269 270 271 271 272 273 273 274 275 276 276 276 274
283 283 282 281 281 280 280 279 280 279 278 278 278 277 276 276 276 276 276 275 275 274 273 273 273 273 273 273 274 275 278 279 282 282 283 283 283 282 281 279 280 277 276 275 275 275 276 276 277 279 278 277 278 278 277 276 275 276 276 275 274 273 269 267 267 266 267 267 268 267 268 268 268 269 269 270 271 272 273 274 275 276 276 276 276
281 280 280 280 279 279 278 278 279 278 278 278 277 276 276 276 276 276 276 275 275 274 273 273 273 272 272 273 274 276 277 278 281 282 282 283 283 282 282 281 280 277 277 276 276 276 276 277 278 278 277 277 277 276 276 275 275 275 274 274 272 269 267 266 265 266 266 266 266 266 267 267 268 268 269 270 271 271 272 273 274 276 275 274 274
279 279 278 278 278 277 277 277 277 277 277 277 277 276 275 275 275 275 275 275 275 274 273 273 273 273 273 272 273 274 276 277 278 280 282 282 283 283 282 282 281 280 276 276 276 276 278 278 278 277 276 276 275 274 272 273 273 273 272 271 268 265 265 265 265 265 265 265 265 266 266 267 268 269 269 270 271 272 273 274 275 275 274 273 273
278 277 276 276 276 275 276 275 275 276 276 277 277 277 276 276 276 275 275 275 275 274 273 273 273 273 273 273 273 274 274 275 276 278 280 281 281 282 282 281 280 279 277 276 277 278 278 277 277 276 275 274 271 270 269 270 270 270 269 268 265 264 264 264 264 264 264 264 265 265 266 267 268 268 269 270 270 271 272 273 273 273 272 271 270
277 276 276 275 274 275 276 275 275 274 274 275 275 276 276 276 276 275 275 275 275 274 274 273 274 274 274 274 273 273 273 274 274 276 278 279 279 280 280 279 280 278 276 277 277 275 275 274 273 273 273 273 272 271 269 268 266 266 265 264 264 264 264 264 264 264 264 264 265 265 266 267 268 269 268 269 270 271 272 273 272 271 270 270 269
277 275 275 274 274 274 275 274 274 274 274 274 275 274 275 275 276 275 275 275 275 274 274 274 274 274 275 274 273 272 272 273 273 274 275 276 277 277 277 277 276 275 274 273 271 271 271 272 271 268 267 266 266 264 264 264 264 264 264 263 263 263 265 266 266 264 264 265 265 266 266 267 266 267 268 269 270 271 272 272 271 270 269 268 267
275 273 273 273 273 273 274 274 274 274 274 273 274 275 275 275 276 276 275 276 277 277 276 276 276 277 276 274 272 271 271 272 273 277 276 278 276 275 275 275 274 273 274 273 268 267 266 265 265 265 265 264 264 264 263 262 262 262 261 261 262 263 262 262 262 263 263 264 264 264 265 266 266 267 268 268 269 270 272 271 271 269 268 268 266
273 272 272 273 272 273 273 273 273 273 273 273 273 272 274 277 276 275 275 277 279 280 280 277 277 278 277 276 275 273 272 273 277 278 278 279 279 278 277 277 276 274 275 274 269 265 265 264 264 264 263 263 262 262 262 261 261 261 261 263 263 261 262 262 262 262 263 264 264 264 265 265 265 266 267 267 268 270 272 271 269 269 267 266 266
273 272 272 272 273 273 273 273 272 272 272 273 272 273 272 272 279 279 278 277 278 279 280 280 280 280 278 276 276 278 277 277 279 279 279 280 280 279 279 278 278 277 278 270 266 264 263 263 263 262 262 262 262 261 262 261 261 260 260 261 261 262 262 262 262 262 263 263 264 264 265 265 265 266 266 266 267 269 270 271 269 268 267 266 265
274 273 273 272 273 273 272 272 272 272 271 272 272 272 272 272 272 277 278 278 278 279 280 280 280 281 280 278 276 276 278 279 280 280 280 280 280 280 279 279 278 279 277 273 265 264 264 264 262 262 262 261 261 261 261 260 260 260 259 260 260 261 261 261 262 262 262 262 263 264 264 264 265 265 266 266 267 268 269 269 268 267 266 266 266
274 272 272 272 272 272 272 272 271 272 271 271 271 271 272 272 273 272 275 278 279 279 280 280 280 281 280 279 279 278 279 280 281 281 281 281 281 280 280 280 279 279 277 269 265 264 263 263 262 262 261 260 261 260 260 260 259 259 259 260 260 260 261 261 262 261 262 263 264 264 264 264 265 265 265 266 266 267 268 268 267 267 266 265 264
272 273 272 272 272 271 272 272 272 272 272 272 272 272 272 273 273 273 272 273 275 277 279 280 280 280 280 280 280 280 281 281 282 281 281 281 281 280 280 278 279 279 274 267 265 264 263 262 262 261 261 260 259 259 259 259 259 259 259 260 260 261 260 261 260 261 262 263 263 264 264 264 264 264 264 265 266 267 268 268 267 265 264 263 263
270 271 270 271 272 272 272 272 272 271 271 271 271 271 272 272 273 273 273 273 273 273 274 276 279 280 278 279 280 281 281 282 282 281 281 281 280 280 279 275 273 273 269 264 264 264 262 262 261 261 260 259 259 259 259 259 259 259 259 259 259 259 259 260 260 261 262 262 263 263 264 263 263 264 264 264 265 266 267 267 266 265 263 262 262
269 270 269 270 271 271 271 271 271 271 271 271 271 272 271 271 272 272 273 273 273 274 273 275 275 278 279 279 280 281 281 282 281 281 280 280 280 280 272 270 269 268 266 265 264 263 263 262 261 260 260 259 259 259 259 258 259 259 259 258 258 259 259 260 261 262 261 262 262 263 263 262 263 263 264 264 265 266 267 267 266 264 263 262 262
268 268 269 268 269 270 270 269 270 270 271 270 270 270 270 271 271 271 272 272 272 273 273 272 272 273 277 275 277 279 281 281 281 280 280 279 280 276 271 270 268 267 265 264 263 262 261 261 261 260 259 259 259 259 258 258 258 258 259 259 258 258 259 260 262 262 261 261 262 262 262 262 262 262 263 263 264 266 267 267 265 264 263 262 262
267 268 268 266 266 267 267 268 268 270 270 269 269 270 270 270 270 271 271 272 272 272 271 270 272 273 273 272 276 276 277 279 279 279 279 278 276 273 270 268 267 266 265 265 263 261 261 261 260 260 259 259 258 258 258 258 258 257 258 258 258 258 261 262 262 260 261 262 262 262 262 261 261 262 262 263 264 265 266 266 265 263 262 261 260
265 268 269 270 270 268 268 267 267 268 268 268 268 268 269 269 269 270 270 271 270 270 270 270 270 271 273 273 273 275 276 275 274 273 274 274 274 272 268 266 266 265 265 264 263 262 261 261 259 259 259 258 258 258 258 258 257 257 257 257 258 258 258 259 259 259 261 261 261 261 261 261 261 261 262 263 263 265 266 266 265 264 262 261 260
264 265 266 269 267 268 267 267 267 267 268 268 268 268 268 268 269 269 270 270 270 270 270 269 269 270 271 271 272 273 272 272 273 272 272 271 270 268 267 266 265 265 264 263 262 262 261 261 259 258 259 258 258 258 258 258 257 257 257 257 257 257 258 258 259 259 260 261 261 261 261 260 261 261 262 262 263 265 265 265 265 264 262 261 260
265 264 265 268 268 266 266 265 266 267 267 267 268 268 268 268 269 269 269 269 270 270 270 270 270 271 271 270 272 273 272 272 272 271 270 270 269 266 265 265 265 264 264 263 262 262 261 260 259 259 259 259 258 258 258 257 257 257 257 257 258 258 258 258 258 259 260 260 261 260 260 261 261 261 260 261 263 264 265 265 265 264 263 260 259
263 263 264 264 265 265 265 266 266 266 266 266 267 267 267 268 268 268 269 269 269 270 270 270 270 270 270 271 272 273 272 271 271 270 269 268 267 266 266 265 265 265 265 263 262 261 261 260 259 259 258 258 258 258 258 257 257 257 257 257 257 257 257 257 258 258 259 260 261 260 260 260 260 261 261 261 262 263 264 264 264 264 263 261 259
264 264 264 264 263 264 265 265 265 264 265 265 266 266 267 267 268 268 268 268 269 269 269 269 270 269 268 271 270 271 271 270 268 269 268 268 267 266 266 265 264 264 264 264 263 262 261 260 259 259 259 259 259 258 258 258 258 257 257 257 257 256 256 257 258 258 259 260 261 260 260 260 260 260 260 260 261 262 263 263 263 263 262 260 258
263 264 264 264 263 263 263 263 264 265 265 266 266 266 266 266 267 267 268 268 268 268 269 269 269 268 267 268 269 269 269 270 269 268 267 267 266 266 266 265 264 263 263 262 261 261 261 260 259 259 259 259 259 258 258 258 257 257 257 257 256 257 257 257 257 258 259 260 260 260 260 260 260 260 259 260 260 261 262 262 262 262 262 261 259
261 261 261 261 261 261 262 262 263 264 264 264 264 265 265 265 266 266 267 267 267 267 268 268 268 268 267 267 267 267 268 269 268 267 267 267 266 266 266 265 264 263 262 261 260 259 260 259 259 258 257 258 257 257 257 257 257 257 257 257 256 257 258 257 257 258 259 259 260 260 260 260 259 259 259 259 260 260 261 262 262 262 261 261 260
258 259 260 260 260 261 261 261 262 262 263 263 264 264 264 264 265 265 266 266 266 267 267 267 267 267 267 266 267 267 267 268 268 268 267 266 266 266 265 264 263 262 261 260 259 258 259 259 258 258 257 257 256 256 257 256 256 256 256 256 257 257 257 258 258 259 260 260 261 261 261 260 260 260 259 259 259 260 260 261 261 262 262 261 261
257 258 259 260 260 261 261 261 261 262 262 262 263 263 264 264 264 264 265 265 266 266 266 266 267 267 266 266 266 266 267 267 267 267 267 266 266 265 264 263 262 261 260 260 259 258 258 258 258 258 258 257 256 255 256 256 255 255 255 255 256 256 256 257 258 258 259 260 261 261 261 260 259 259 259 258 258 258 259 260 261 260 260 260 260
257 258 258 259 259 259 260 259 261 262 262 262 263 263 263 264 264 264 264 264 265 265 265 265 265 266 265 265 265 265 266 266 267 266 267 266 266 265 264 262 261 260 260 259 259 258 258 258 258 258 257 257 256 256 255 255 255 255 255 255 255 254 255 256 257 257 259 259 260 260 260 259 259 258 257 257 257 258 258 259 260 260 260 260 261
256 257 257 258 258 259 259 260 261 261 261 262 262 262 262 262 263 263 263 263 264 264 264 264 265 265 265 265 265 265 265 265 266 266 266 266 265 264 262 261 260 259 259 258 258 257 257 257 257 257 257 257 257 256 256 255 254 254 254 254 254 255 255 256 256 256 257 258 259 260 260 259 257 256 256 256 256 257 257 257 258 259 260 260 260
257 257 257 258 259 259 259 259 260 260 260 260 260 261 261 261 262 262 262 262 263 263 263 264 264 264 264 264 264 264 264 264 264 265 265 265 264 263 261 260 259 259 258 258 258 257 257 257 256 256 256 256 256 256 255 255 254 254 254 254 255 256 256 256 256 257 257 258 258 259 259 258 256 254 253 253 253 254 254 255 257 258 259 259 259
257 257 257 258 258 258 257 257 258 258 258 259 259 260 260 261 261 261 262 262 262 262 263 263 263 263 263 264 264 264 264 264 264 264 264 264 263 261 260 259 258 258 258 257 257 257 256 256 256 256 255 255 255 255 254 254 254 254 254 255 256 256 257 257 256 257 257 258 258 259 258 256 254 253 253 253 252 252 254 256 256 257 257 258 259
Wind_Speed
7 7 7 7 7 8 8 7 8 8 9 10 11 10 10 10 10 10 9 9 10 10 10 9 9 11 10 9 11 10 10 9 8 8 7 7 5 6 6 8 9 6 7 7 5 7 7 7 6 4 3 5 4 3 3 3 3 3 3 2 3 2 1 1 4 10 6 4 5 7 9 11 11 9 14 13 11 10 13 11 12 11 12 11 11
5 5 5 5 7 7 7 7 8 7 8 8 8 8 8 8 9 9 10 10 11 11 11 10 8 10 11 9 10 9 9 8 8 8 8 8 8 6 7 9 9 8 7 7 6 5 6 7 6 5 3 5 4 4 3 3 3 4 3 3 3 3 2 1 4 4 11 5 4 5 6 8 12 9 11 16 16 15 15 13 10 10 10 11 11
4 4 4 5 5 4 4 5 5 7 8 7 7 7 7 6 7 10 9 8 5 9 10 11 11 11 10 10 10 9 9 9 8 9 8 9 9 7 7 9 9 9 8 7 7 6 6 6 5 4 3 5 4 3 3 3 3 4 4 3 3 3 2 3 3 4 8 10 4 6 8 9 9 13 13 12 13 13 15 15 14 12 9 10 11
4 5 4 4 4 3 4 3 5 5 6 5 7 6 7 7 6 7 8 8 9 7 7 9 10 11 11 10 10 10 9 9 8 8 9 9 10 9 8 7 8 8 8 8 7 6 6 6 5 5 5 5 4 3 3 3 4 4 4 3 3 3 3 3 3 4 6 10 8 6 7 10 9 10 10 10 11 14 12 14 14 13 14 12 14
4 3 4 4 4 4 4 4 5 5 5 5 6 6 7 7 6 9 9 7 8 10 8 8 10 10 10 11 10 10 10 11 10 9 7 7 8 9 8 7 7 7 7 7 6 6 5 5 5 5 5 5 4 3 3 5 4 3 4 3 3 3 3 4 4 5 7 9 12 7 6 8 8 8 8 14 16 16 16 14 13 14 14 12 12
3 4 4 4 4 4 4 4 5 5 6 6 7 7 7 7 9 7 8 11 8 8 10 8 10 10 10 10 9 9 10 10 10 10 8 8 8 7 7 7 7 7 7 6 6 5 6 5 5 4 4 4 4 4 4 4 4 4 4 4 3 3 4 3 4 5 6 8 9 13 9 10 11 8 6 9 13 16 17 18 17 13 14 14 13
3 4 4 4 5 5 5 4 6 6 6 7 7 7 8 8 7 10 10 10 11 11 9 9 7 10 10 9 10 11 10 9 9 8 8 7 8 9 8 7 7 6 6 6 6 5 5 5 5 4 4 4 5 4 4 4 4 4 4 4 4 4 4 4 5 6 6 8 9 8 10 9 9 13 12 11 11 9 12 17 20 18 17 17 19
3 4 4 5 5 5 5 5 6 7 7 7 7 7 8 8 8 7 8 9 9 10 12 11 9 9 9 9 8 9 9 8 8 7 7 7 8 8 8 8 8 8 7 6 6 5 5 5 4 4 4 4 4 4 4 4 3 4 4 4 4 4 4 5 6 7 7 8 8 10 9 10 11 10 10 9 10 10 10 13 18 19 22 21 18
4 3 3 4 5 4 4 4 4 4 6 6 6 7 7 7 7 8 8 8 7 9 9 11 12 10 8 8 8 8 9 8 7 8 8 7 7 9 8 8 9 9 8 7 6 5 5 4 4 5 5 6 7 6 6 5 3 4 4 4 4 5 5 5 5 6 7 8 10 10 10 10 9 12 13 12 13 14 15 14 16 16 16 18 16
4 6 5 4 4 5 5 5 7 6 7 7 7 7 8 9 9 9 9 8 9 9 10 9 11 12 11 8 8 7 7 6 8 10 9 9 8 7 7 7 8 8 9 8 6 5 5 5 5 7 7 6 7 7 7 7 6 4 3 3 4 4 5 5 5 5 6 7 8 10 12 11 11 10 13 14 14 14 16 16 18 17 17 16 16
4 5 7 5 5 6 6 6 7 8 8 7 8 8 9 8 9 9 9 9 10 10 10 11 10 9 10 10 8 6 6 6 13 13 14 13 9 8 8 7 7 7 7 7 7 6 5 5 5 5 5 4 5 6 5 5 5 5 4 4 5 4 4 5 5 5 6 6 7 8 10 13 11 11 12 14 14 15 14 14 14 15 15 16 18
7 6 4 6 7 7 7 7 6 7 7 8 8 8 8 8 9 10 10 10 9 9 10 10 10 9 8 8 7 7 7 11 15 14 14 14 10 7 7 7 7 7 7 7 6 6 6 5 4 3 3 3 3 2 0 1 0 3 4 5 5 6 5 4 5 5 6 6 7 7 9 10 12 12 12 14 15 16 14 14 14 14 16 16 14
7 7 7 7 7 7 7 8 7 7 7 8 7 7 8 8 9 9 9 9 9 10 10 10 8 7 9 9 8 7 8 12 14 15 14 14 14 10 6 7 8 7 7 6 6 6 5 5 4 3 3 4 2 2 2 1 3 1 5 4 4 5 5 6 6 5 5 7 7 8 8 10 13 12 13 15 14 15 15 14 14 15 15 15 14
8 9 8 8 8 7 7 7 8 8 7 8 8 7 7 8 8 7 8 8 9 8 7 10 9 9 9 9 8 8 9 12 14 15 14 15 14 10 6 8 7 7 7 6 5 5 5 5 4 4 3 2 2 2 2 2 1 3 3 3 3 4 5 6 7 8 8 6 7 9 10 10 11 13 14 13 13 13 13 14 15 17 17 17 20
7 7 8 8 7 7 7 7 8 7 7 7 7 7 7 7 8 7 8 9 9 10 10 10 8 9 9 8 8 8 7 14 15 15 15 15 15 10 7 7 7 6 6 6 5 5 5 4 4 4 3 1 2 1 1 2 2 2 3 3 3 4 4 5 5 5 5 6 8 10 11 10 11 12 12 11 12 11 11 13 14 15 17 19 17
9 8 8 8 8 8 8 7 7 6 7 6 7 8 7 8 9 7 7 6 5 6 5 6 9 9 8 9 10 8 9 15 15 15 16 15 15 7 7 7 7 7 6 5 5 4 4 4 3 3 2 1 4 3 3 2 2 2 3 3 3 3 4 5 6 6 6 7 8 10 10 11 14 12 12 11 10 10 11 11 11 11 13 15 16
10 9 8 8 9 9 9 9 9 8 7 8 8 8 8 8 7 6 8 7 8 8 8 7 7 9 10 9 10 9 10 13 15 16 16 16 11 5 6 6 6 7 6 6 5 4 4 4 3 2 2 1 5 3 4 4 2 2 2 3 2 2 4 4 3 7 11 13 14 15 16 16 15 16 15 15 12 10 9 11 11 12 13 15 16
8 7 7 7 8 8 9 9 9 9 9 10 9 7 6 5 7 7 10 10 9 8 8 8 6 7 10 10 10 11 9 13 16 15 16 15 10 7 6 7 7 6 6 5 4 4 4 5 3 2 2 3 3 4 4 3 2 2 2 3 3 4 3 3 4 5 9 11 13 13 14 14 14 14 13 13 13 11 8 9 11 12 13 12 15
5 8 8 7 7 8 9 8 9 10 11 10 10 11 10 9 7 6 6 7 8 7 7 8 7 5 5 8 10 10 10 12 16 15 16 15 10 6 7 7 8 6 6 6 4 3 4 4 4 4 3 2 2 3 3 2 1 1 1 2 3 3 4 6 6 6 6 7 7 7 8 9 8 8 8 12 12 10 9 9 10 10 12 13 13
7 5 5 7 7 8 7 8 9 10 11 9 9 9 8 8 9 8 7 6 8 7 7 7 10 7 6 7 8 8 10 9 12 16 15 15 14 7 5 8 7 8 6 6 6 4 3 2 3 4 2 1 1 2 2 2 1 1 1 1 3 4 5 5 6 6 6 6 7 7 7 6 6 6 6 7 7 8 8 8 9 9 10 11 12
6 7 7 8 8 8 6 8 9 7 7 8 7 6 6 8 8 8 8 7 7 8 8 7 8 7 5 5 6 6 7 9 11 16 15 15 16 12 6 6 7 7 7 7 5 5 4 3 2 4 3 1 1 0 1 1 2 2 1 2 4 5 7 5 6 8 5 5 6 5 5 5 5 6 5 5 6 6 7 8 8 9 9 10 11
6 7 8 7 7 7 8 7 7 8 8 9 9 7 5 7 8 8 7 8 10 9 8 7 7 6 4 4 5 5 5 9 10 15 16 16 15 14 6 6 7 8 8 6 5 5 5 4 3 4 3 3 2 1 1 2 3 2 2 5 7 9 6 4 2 3 4 5 5 5 5 5 6 6 6 6 6 7 6 7 7 8 8 8 9
6 6 6 7 7 8 8 9 9 8 9 10 12 11 9 10 9 9 10 10 11 11 10 9 9 7 6 4 3 4 7 7 12 12 16 16 16 14 12 8 13 7 7 8 8 6 5 4 5 5 4 4 3 2 2 3 3 2 5 7 9 10 7 2 3 3 5 5 5 5 5 5 7 8 8 8 8 7 7 6 6 7 6 7 8
5 6 6 6 6 6 7 7 7 7 9 10 10 11 11 10 10 10 10 11 11 10 7 8 8 8 9 7 5 7 7 7 9 13 13 18 16 15 15 15 15 7 6 6 6 6 6 6 5 6 5 4 3 3 2 3 3 4 6 8 9 8 3 3 2 3 5 4 5 6 6 6 7 8 8 9 9 9 9 8 7 6 6 8 8
6 6 6 6 6 5 5 6 7 7 8 10 11 10 10 11 11 8 10 10 10 11 10 9 11 8 7 8 7 7 7 7 7 11 16 16 17 17 17 17 15 13 7 6 6 6 7 9 9 7 6 5 4 4 4 4 5 5 7 8 7 2 2 2 2 4 4 5 5 6 6 6 7 8 8 9 10 9 8 7 6 5 6 5 7
6 6 5 6 6 6 7 5 5 5 7 7 8 9 11 11 11 10 10 10 10 10 10 9 8 8 7 6 8 7 8 7 8 8 11 12 12 16 16 16 15 14 9 8 10 11 11 9 9 8 6 5 3 2 2 2 6 7 7 7 2 1 1 1 2 4 4 5 5 6 6 7 7 7 8 8 8 9 10 11 11 12 12 11 9
6 5 6 5 4 6 7 6 5 4 4 4 4 5 6 7 7 9 9 10 10 8 9 10 10 9 8 7 7 7 7 9 8 9 8 8 8 10 11 10 14 14 10 8 9 7 8 7 5 6 5 6 5 4 4 5 4 3 2 2 1 1 1 1 2 3 4 5 5 6 6 7 7 7 7 7 7 8 9 10 9 10 11 10 10
7 6 6 5 5 5 6 7 7 6 6 6 7 6 6 7 9 11 13 13 12 11 11 12 13 13 11 8 9 7 8 9 10 10 11 11 10 8 8 8 9 9 9 8 7 5 5 6 6 3 3 3 2 2 2 2 1 1 1 1 1 2 3 4 4 1 2 4 5 5 6 6 6 6 7 7 7 8 8 8 9 10 10 10 10
5 5 5 5 5 5 6 7 7 7 7 6 6 7 9 9 9 7 5 4 6 10 13 13 12 10 10 12 12 8 8 11 13 14 13 17 13 12 10 10 9 8 9 13 9 7 6 6 4 4 3 3 1 1 0 0 1 1 1 2 2 1 1 1 1 2 2 4 4 5 6 6 6 6 6 6 7 8 7 7 8 8 8 8 8
5 5 5 5 5 5 5 5 6 6 7 7 6 4 4 6 6 5 6 5 5 4 4 7 6 7 9 10 14 18 18 18 16 21 21 22 21 18 13 16 14 10 15 17 10 8 7 7 4 5 4 3 3 3 3 2 2 1 1 2 1 1 2 1 1 2 3 4 4 5 6 6 6 6 6 6 7 7 7 9 8 8 8 8 8
5 5 5 5 6 6 5 5 5 5 5 5 5 6 5 3 8 9 6 5 4 4 4 3 6 9 7 8 10 6 1 8 20 21 21 23 21 20 18 19 20 19 21 14 8 7 9 7 5 4 4 4 4 4 3 3 2 2 1 1 2 2 2 2 2 2 4 4 5 5 5 5 5 6 6 7 7 7 6 7 7 8 8 7 8
5 5 5 4 5 6 4 4 4 5 5 5 6 6 6 6 5 5 7 6 6 8 8 8 8 11 12 9 8 4 8 17 21 22 23 22 21 20 20 21 21 22 21 16 10 9 7 8 6 6 5 5 5 4 3 3 2 2 1 1 1 2 2 2 2 2 3 4 5 5 5 5 5 5 6 7 7 7 6 7 7 7 7 6 6
5 4 5 5 5 6 5 5 5 6 6 7 7 7 8 8 9 8 4 7 9 10 11 11 12 12 14 13 15 11 12 17 22 22 23 23 22 21 20 21 20 21 21 10 8 10 6 8 7 6 6 7 6 5 4 3 3 3 2 2 2 2 2 3 3 2 2 4 5 5 4 5 5 5 6 6 7 6 6 6 7 6 6 7 7
4 5 5 6 6 5 6 6 7 7 6 6 6 7 7 7 8 7 6 4 4 5 8 12 13 14 15 16 17 16 15 19 21 22 23 23 22 21 20 15 19 21 16 9 10 11 7 9 8 10 9 6 6 4 4 4 4 3 3 3 4 3 4 3 2 2 2 3 4 4 4 4 5 5 5 5 6 6 5 6 6 6 6 5 5
3 4 7 6 6 6 6 6 7 6 6 7 7 8 8 8 7 7 8 10 10 10 9 8 11 14 11 12 15 15 16 19 21 21 22 21 22 21 19 11 12 11 8 5 7 10 11 9 8 8 8 9 7 6 6 5 4 4 4 3 3 3 3 2 3 2 2 2 4 4 4 4 4 4 5 5 5 6 5 6 5 4 5 5 5
2 2 2 4 4 4 5 5 5 6 7 7 7 7 7 7 8 8 7 7 8 8 6 4 3 8 12 12 15 16 18 20 21 22 21 23 22 24 13 11 9 9 9 8 10 9 9 10 11 9 8 8 7 6 5 5 5 4 4 4 5 3 3 3 3 2 1 2 3 4 4 4 3 4 4 5 6 6 5 6 5 5 3 3 3
2 2 3 3 3 4 4 4 5 5 6 6 5 5 6 6 5 6 6 7 8 7 5 3 3 5 8 6 11 15 18 18 19 20 21 20 24 16 9 10 12 10 9 9 9 9 8 7 7 7 8 8 7 6 5 5 4 5 5 5 4 4 4 3 3 2 2 2 3 4 4 4 4 4 4 4 5 5 5 5 5 5 4 4 4
3 4 4 3 3 3 4 4 5 5 6 5 4 5 5 6 7 7 8 9 8 7 6 6 7 9 11 10 9 7 11 15 17 15 15 16 14 11 10 8 8 9 11 9 9 7 6 8 10 10 8 7 7 6 5 5 4 5 5 5 4 4 6 5 4 2 2 2 3 4 5 4 3 3 3 4 5 5 6 5 6 5 4 3 1
2 2 4 4 4 4 4 4 4 4 5 4 4 5 6 6 6 7 7 6 6 7 6 7 8 9 8 6 8 7 9 10 11 13 12 11 10 9 9 9 9 8 7 10 9 8 9 11 9 10 8 6 7 6 6 6 5 6 5 5 5 5 4 3 3 2 2 2 3 3 4 4 4 3 3 3 5 5 6 6 6 5 5 3 2
2 2 2 4 3 3 3 4 4 4 5 5 6 6 6 6 7 7 7 7 9 8 7 8 9 9 5 7 9 9 12 12 11 10 10 10 10 9 9 10 10 10 11 11 12 10 10 8 7 7 7 7 7 7 6 6 6 5 5 6 5 5 5 3 3 3 3 2 2 3 4 4 4 3 3 3 4 5 6 6 6 5 4 3 3
2 1 2 3 4 3 3 4 5 5 4 5 5 6 7 7 6 6 7 8 8 8 8 8 9 6 6 8 11 13 10 10 9 8 9 10 10 10 11 10 10 10 10 11 13 11 10 9 8 7 7 7 7 7 6 6 6 6 6 5 4 5 5 4 3 3 4 3 3 3 4 4 4 4 3 3 5 6 6 6 6 6 4 2 2
2 1 2 3 3 3 4 5 5 5 5 5 5 6 6 6 6 6 8 8 8 8 9 9 8 6 6 14 16 19 11 9 7 7 9 9 9 10 10 10 9 10 10 12 14 15 11 8 8 7 8 7 7 6 6 7 7 6 6 5 6 5 4 5 4 3 3 3 3 4 3 3 4 3 4 5 5 5 6 6 6 6 5 2 2
2 2 2 3 2 4 5 5 4 5 5 5 6 5 6 6 7 7 7 8 8 8 8 9 7 5 7 12 14 18 12 10 8 10 10 10 10 10 11 11 11 10 9 8 11 14 14 11 8 7 7 8 8 8 8 8 7 7 6 6 6 6 6 5 4 4 3 4 4 4 3 3 3 3 3 3 4 5 6 6 6 6 5 3 2
2 3 3 3 4 3 4 4 5 5 5 6 6 6 6 6 6 6 7 8 8 8 9 9 7 6 6 7 11 12 12 12 11 11 12 11 11 12 11 10 9 9 10 10 9 10 10 11 9 7 6 6 6 7 6 6 6 7 7 7 7 7 6 6 5 4 3 3 4 5 4 3 3 4 4 4 4 5 6 6 6 6 5 4 2
2 3 3 3 3 4 5 4 5 5 6 6 5 6 6 6 7 7 7 8 8 8 8 8 7 7 6 8 10 10 12 12 12 11 12 12 12 12 10 9 10 10 10 11 10 10 11 11 11 9 9 6 7 8 6 6 6 6 5 7 7 7 7 6 5 3 3 4 5 5 4 4 3 4 3 3 4 5 6 6 6 6 4 4 2
2 2 4 3 4 5 5 4 6 5 5 5 6 6 6 6 7 7 7 8 8 8 8 8 7 8 8 8 9 10 11 11 11 12 10 10 10 10 9 9 8 8 10 11 11 12 9 9 10 7 8 7 8 7 6 6 6 6 6 6 6 6 5 3 3 4 5 5 5 5 4 4 4 4 4 3 3 4 6 7 7 6 5 4 3
2 2 3 4 4 6 5 5 4 5 5 6 6 6 6 7 6 7 7 9 8 8 8 8 8 8 8 9 9 10 10 11 11 11 11 11 10 9 8 7 8 10 11 11 12 11 11 8 7 7 6 7 7 7 7 5 5 6 6 6 6 6 5 5 6 6 5 6 6 4 3 4 5 4 4 3 3 4 6 7 7 7 5 3 3
3 4 4 5 4 4 5 4 5 6 6 6 6 6 7 6 7 7 7 7 8 8 8 8 8 8 8 9 8 9 9 10 10 9 9 9 9 8 8 8 10 11 11 11 12 10 7 6 8 8 8 8 8 7 7 6 6 5 5 5 6 7 7 7 6 6 6 5 5 5 5 5 6 5 3 3 3 4 5 6 6 6 5 4 3
3 4 4 5 4 5 5 5 6 5 6 6 6 7 7 7 7 7 7 7 8 8 8 8 9 8 8 9 8 8 9 8 10 10 9 9 8 8 8 10 9 11 12 12 11 12 12 11 11 9 8 7 6 6 6 7 7 6 6 7 8 12 12 12 8 7 7 6 6 6 4 5 6 5 4 3 3 3 4 6 6 7 6 4 3
4 3 4 4 5 5 6 5 5 5 6 6 6 7 6 6 7 7 7 7 8 8 8 8 9 9 8 9 8 9 9 10 10 10 9 8 8 7 8 9 11 13 12 10 9 10 10 10 11 8 8 9 9 8 7 8 6 6 6 7 11 13 13 14 14 12 8 6 6 5 6 7 7 5 4 3 3 3 4 5 6 7 6 4 3
5 5 5 5 5 5 5 5 5 6 5 6 6 7 7 7 7 7 7 8 8 8 8 8 8 8 9 9 8 9 9 9 9 8 8 8 8 8 9 12 13 14 12 13 10 7 7 8 10 9 10 10 10 8 7 6 6 6 8 12 13 14 14 13 9 11 14 10 6 6 7 7 6 6 5 4 3 3 5 6 6 6 5 3 3
Wind_Direction
218 221 210 213 205 202 198 193 193 191 186 185 184 186 178 172 169 166 149 159 151 151 146 147 148 139 139 142 138 137 135 137 140 135 123 128 129 129 129 126 117 118 118 115 112 109 106 105 101 93 103 102 100 97 94 94 97 97 98 96 84 71 104 257 270 291 289 174 308 321 328 329 321 333 325 326 326 328 325 321 322 324 322 321 320
234 239 232 224 212 202 196 192 187 183 183 184 184 176 169 167 157 145 164 158 159 153 148 143 145 139 139 142 140 136 133 139 145 134 129 128 125 135 132 128 120 122 125 116 114 105 109 107 106 109 105 107 111 114 118 116 112 97 88 78 66 52 20 335 289 278 298 316 323 321 320 338 314 330 334 327 326 328 324 321 317 316 314 316 318
216 221 220 218 216 212 193 190 180 181 178 176 169 160 153 146 153 152 149 149 140 144 146 146 148 140 135 137 136 139 142 143 145 136 137 138 138 139 140 135 134 134 128 125 121 117 106 108 119 126 130 121 123 118 123 110 95 85 77 76 64 49 29 16 343 303 307 307 315 325 335 330 322 320 326 319 312 317 318 320 321 317 317 317 316
192 190 194 192 176 165 177 169 168 170 170 159 153 144 143 146 149 140 138 142 139 127 134 138 138 136 135 137 143 144 146 144 140 139 141 141 137 137 138 128 122 121 123 125 124 119 123 123 131 142 147 126 125 115 104 100 89 85 84 75 62 52 16 17 345 312 306 311 314 333 323 324 317 317 315 309 315 318 317 313 316 318 321 324 323
170 169 162 154 151 156 159 162 160 155 147 138 138 138 139 138 136 136 133 135 137 136 131 139 134 138 144 148 148 148 146 143 131 130 128 133 132 132 127 118 113 114 114 115 119 122 126 122 136 148 157 132 126 115 106 100 98 93 83 70 53 33 17 360 343 324 311 304 306 315 317 308 307 310 334 336 329 326 322 319 319 317 317 318 321
152 146 145 148 151 151 153 148 150 146 145 142 145 143 138 142 144 140 144 141 140 137 141 147 146 144 143 144 144 142 140 139 135 131 133 133 127 116 112 112 114 112 111 110 117 119 123 128 134 144 154 138 125 122 117 106 100 86 75 58 44 26 15 355 344 331 316 302 306 314 329 332 325 323 339 338 329 326 326 324 321 322 321 322 324
150 151 155 157 152 154 150 154 150 145 149 147 141 142 144 143 148 152 152 148 146 142 141 133 136 138 140 141 144 141 136 133 131 131 133 133 127 122 119 118 115 108 105 111 112 114 120 126 130 134 128 123 125 121 113 103 89 77 68 50 33 20 4 360 346 338 327 319 313 308 313 322 324 317 329 330 323 322 327 327 322 324 322 326 328
155 154 156 152 155 157 159 154 157 154 147 147 149 146 144 147 144 136 132 136 138 142 145 144 141 140 141 142 140 139 134 129 129 132 132 133 128 121 126 126 119 112 110 108 112 117 119 117 117 117 114 114 112 106 104 95 91 75 63 45 29 15 6 352 348 339 333 327 321 320 323 322 320 312 314 328 330 327 336 326 317 321 323 325 329
154 149 150 158 159 158 149 137 117 121 129 130 133 134 131 124 122 126 129 131 135 141 139 139 138 133 131 137 137 137 137 140 144 143 136 127 126 128 132 128 126 124 119 115 115 115 113 109 107 105 99 95 92 90 87 90 89 75 50 37 21 12 358 351 343 338 332 327 319 319 318 321 322 324 327 336 338 327 324 325 314 315 317 316 320
166 156 165 170 161 150 143 142 141 139 140 144 143 140 136 136 135 135 138 140 139 139 138 141 140 142 140 138 136 135 132 132 138 135 136 137 134 130 126 128 129 128 127 125 118 114 112 113 107 104 98 88 84 84 84 77 79 73 64 31 13 3 351 342 338 333 326 323 320 320 318 317 323 325 321 320 322 323 325 326 322 322 322 317 313
175 177 174 166 164 155 149 157 150 154 154 146 145 144 143 141 140 139 140 144 145 146 143 141 142 144 144 141 134 127 129 132 140 140 137 136 132 134 134 132 129 128 131 131 131 131 127 121 119 110 99 84 79 79 81 84 81 64 50 32 15 358 345 338 329 325 319 313 312 312 308 308 313 320 318 319 322 325 323 320 318 321 323 324 321
175 182 175 165 165 171 162 155 160 154 149 152 153 150 147 147 146 148 147 149 150 146 147 146 142 140 133 127 121 128 127 142 141 139 138 137 137 128 130 131 133 131 132 131 134 138 139 137 132 126 106 98 102 91 78 248 148 48 36 24 11 0 346 333 322 319 318 309 308 305 306 305 313 319 320 325 325 323 324 323 320 319 316 314 313
178 180 174 174 178 177 165 163 163 162 163 156 154 153 155 150 148 151 156 151 143 150 147 140 136 131 134 131 128 131 130 142 139 140 139 138 135 130 127 130 130 132 133 134 138 142 146 146 146 136 123 127 146 203 207 236 240 5 38 21 5 359 345 335 326 310 304 300 298 298 297 308 310 314 321 321 322 319 322 320 319 315 313 308 310
186 184 177 180 176 171 168 166 166 167 161 158 157 159 157 157 153 149 143 147 150 141 138 138 137 139 141 136 129 129 130 142 141 140 139 137 137 133 128 129 125 126 130 133 135 142 152 158 152 140 137 156 182 221 241 217 109 40 22 8 3 356 349 332 319 309 301 295 295 293 300 304 302 310 319 326 323 318 318 316 318 317 315 309 308
195 188 182 178 170 170 169 170 165 161 161 159 158 159 158 149 151 153 156 158 155 153 150 146 147 142 140 136 129 130 134 143 141 142 142 139 137 133 126 122 119 119 120 125 134 141 149 145 133 128 148 168 208 263 61 44 47 43 16 10 4 354 336 322 311 309 304 299 296 295 300 308 312 316 319 318 312 309 310 309 313 308 300 300 300
199 188 184 176 174 171 166 167 164 159 160 160 161 162 162 161 157 152 146 139 130 131 133 138 143 140 138 138 132 133 142 146 146 146 144 141 139 131 131 127 124 126 126 135 143 144 146 138 124 145 165 178 245 311 30 39 61 73 18 12 1 338 315 299 301 312 317 316 315 315 316 314 315 314 313 313 313 312 312 312 306 304 309 309 307
205 192 184 179 175 170 171 168 166 165 164 165 169 168 161 158 154 149 145 148 148 152 151 148 148 145 145 144 139 138 144 151 151 149 146 144 139 134 132 126 129 135 140 145 150 151 143 139 151 156 186 225 258 341 15 40 51 33 17 20 346 310 302 278 305 343 336 330 326 321 316 315 314 312 314 317 318 322 318 313 313 318 313 311 310
196 180 189 180 176 172 173 171 168 168 168 175 172 165 155 146 158 164 160 157 156 155 146 139 144 150 149 149 151 145 149 154 155 153 151 151 149 145 146 138 136 140 141 150 153 145 144 157 162 181 209 243 278 20 12 43 28 29 27 358 330 333 336 12 349 338 339 332 326 321 317 315 314 315 315 317 320 326 320 313 313 314 310 310 311
179 192 191 173 171 175 176 176 173 172 176 177 171 167 168 166 154 152 153 149 148 144 146 142 138 137 143 142 147 147 148 155 158 157 156 157 155 152 150 144 142 149 151 151 151 149 158 157 180 192 201 247 5 17 23 29 38 39 34 344 333 350 2 355 352 345 338 333 326 320 309 306 306 309 309 313 318 321 318 311 312 313 311 310 313
195 178 161 167 175 176 179 179 179 177 178 172 170 167 152 149 160 154 151 147 144 145 142 146 145 147 146 147 152 154 152 156 162 161 162 162 163 157 151 146 152 155 158 157 157 160 155 166 186 199 193 304 30 30 25 33 87 74 4 5 357 351 355 21 11 348 330 317 308 303 299 303 308 308 303 301 308 308 315 314 308 307 306 308 312
166 171 169 170 176 179 178 181 176 176 169 163 152 144 152 153 148 149 146 142 139 141 143 143 140 141 145 149 147 160 161 155 164 165 166 167 167 165 162 159 153 152 154 158 159 156 170 176 203 201 202 152 112 104 94 58 87 102 44 27 8 354 19 25 350 343 315 299 298 301 309 314 313 313 311 308 309 307 303 301 291 295 307 306 311
163 162 169 174 176 175 175 172 167 162 150 144 147 147 142 144 150 149 146 147 147 144 146 146 146 139 128 145 155 162 168 167 163 170 171 171 172 171 161 165 159 150 146 150 156 168 178 181 188 200 179 152 146 163 134 95 89 98 22 20 17 20 35 23 341 324 321 323 327 325 321 322 326 325 317 308 306 306 298 287 281 282 300 309 317
158 165 168 173 178 177 176 171 167 163 162 162 157 158 157 156 158 154 152 152 152 153 156 154 148 147 142 155 165 170 173 179 175 172 175 174 175 174 167 157 165 166 155 161 171 171 172 185 192 184 165 163 164 148 135 90 90 42 30 27 25 28 31 8 341 332 341 336 332 332 325 325 333 330 324 319 314 306 299 282 271 276 304 322 325
152 160 172 175 174 177 176 174 168 169 165 161 161 158 164 163 161 166 165 161 160 160 161 159 155 159 163 162 173 179 179 179 185 181 178 177 176 173 170 170 167 169 168 156 155 166 174 179 175 169 166 160 162 156 114 82 65 40 38 30 32 28 18 3 343 345 339 334 334 331 330 329 328 322 319 314 312 310 304 299 302 309 345 340 327
155 166 173 172 175 171 166 175 172 172 172 166 166 167 165 164 165 174 167 171 170 168 171 170 172 166 161 172 170 175 179 181 184 186 183 180 177 175 175 173 171 170 159 158 155 166 172 166 164 164 161 154 148 120 69 57 45 47 38 35 31 16 4 359 343 341 348 343 331 317 319 325 317 303 300 303 302 297 299 309 316 336 355 343 328
162 169 168 169 173 162 166 173 173 176 175 182 182 176 173 176 175 172 177 179 179 174 169 173 172 172 177 168 175 167 173 177 182 186 184 182 180 180 177 174 174 171 158 157 166 164 160 162 159 153 144 139 106 107 102 56 42 39 35 28 16 347 338 348 325 346 338 331 316 312 313 313 309 299 296 298 305 318 324 335 342 348 352 349 343
158 161 169 166 158 164 170 171 171 172 182 181 179 173 174 180 175 177 184 180 181 178 173 177 177 182 185 178 169 160 170 180 180 184 183 180 178 177 175 173 172 164 161 162 159 151 155 150 146 146 142 140 122 92 81 47 35 20 18 5 329 302 304 276 311 328 326 311 306 306 309 302 297 302 320 322 319 317 332 338 347 348 346 343 337
164 171 169 160 168 173 177 170 170 178 185 182 180 183 190 189 188 188 187 184 180 186 185 187 188 187 187 167 159 168 181 183 187 185 184 179 175 173 171 170 174 172 163 154 143 132 123 135 128 81 82 70 78 39 37 38 23 19 338 315 287 290 299 315 322 312 280 288 294 300 302 310 313 322 319 320 323 320 329 348 354 348 346 339 337
147 148 153 153 171 176 176 179 184 182 184 193 207 198 188 194 201 213 229 231 216 198 190 195 197 193 181 168 165 169 180 195 204 194 184 177 171 168 174 179 174 178 169 149 125 97 100 101 135 133 126 130 105 93 25 325 304 304 286 281 276 290 308 281 312 313 307 312 306 309 305 308 315 325 326 325 324 319 339 352 355 350 342 341 334
141 157 160 171 175 177 187 188 187 184 186 191 194 226 233 203 213 205 216 235 249 306 244 227 219 193 188 193 183 176 188 204 181 178 182 184 185 179 174 177 176 164 158 151 140 137 145 157 167 164 155 152 168 188 199 205 216 240 261 288 305 288 272 278 290 281 303 307 301 305 307 314 321 336 333 321 313 319 342 357 351 350 345 341 334
157 159 166 188 186 186 185 190 193 191 189 186 193 198 217 224 214 218 212 216 225 244 243 197 181 197 199 186 201 235 31 148 167 176 178 183 182 180 178 179 174 169 160 143 139 156 157 168 170 171 175 167 184 191 193 204 222 205 215 243 267 265 284 285 281 302 312 308 303 303 309 316 328 333 330 319 312 313 338 352 354 349 347 340 335
176 186 188 186 179 187 191 188 177 184 193 188 190 193 197 211 245 219 199 204 219 219 220 211 208 198 196 194 181 183 176 173 174 177 180 180 181 181 183 179 177 171 164 151 128 164 175 163 167 177 173 181 196 181 192 207 227 221 209 255 266 267 262 272 286 306 303 300 295 302 312 326 330 330 323 317 313 312 334 347 353 350 344 340 337
175 174 175 176 178 181 179 185 191 192 194 191 198 194 198 205 209 221 216 207 213 217 218 214 209 201 192 188 192 195 184 178 178 179 179 178 177 180 183 181 178 171 157 158 155 161 175 175 172 173 178 187 179 177 187 203 209 230 229 224 245 249 261 267 299 287 281 275 283 295 311 324 328 323 321 315 313 308 329 342 347 348 346 340 337
184 173 177 180 176 186 190 195 196 202 201 200 201 199 211 210 220 207 202 224 227 232 230 219 207 198 197 194 193 199 192 182 179 178 179 178 177 177 178 179 178 177 174 171 165 176 169 169 174 176 180 173 171 166 181 196 203 212 231 239 240 253 260 270 269 267 260 282 287 292 312 318 321 318 320 316 308 302 324 337 343 347 343 342 327
191 182 173 174 183 193 195 196 201 199 197 199 199 203 207 209 206 205 206 208 210 211 212 208 206 198 196 196 195 193 187 182 180 179 179 176 175 174 172 169 176 181 174 177 185 179 173 175 173 177 175 177 176 175 183 183 196 212 214 219 236 242 253 255 251 250 258 283 294 301 312 317 315 318 318 314 305 306 324 332 338 341 334 328 325
212 202 193 188 192 201 200 205 202 202 204 208 207 208 205 200 206 216 215 217 220 223 224 200 186 204 193 190 188 185 183 182 181 180 179 178 175 173 166 188 182 184 181 194 196 186 179 166 158 175 169 169 166 175 176 177 198 207 210 202 229 232 237 246 251 249 263 287 294 304 309 308 316 316 313 307 296 300 314 325 326 326 325 320 315
210 222 211 208 207 208 212 209 211 213 215 212 206 210 210 213 216 217 218 220 223 225 208 159 130 210 204 203 195 191 188 186 185 183 182 181 182 180 181 183 188 183 192 195 188 168 180 181 177 167 167 168 177 175 168 180 179 190 219 225 221 232 241 240 246 285 293 298 303 304 301 303 315 315 312 303 298 298 305 318 320 317 311 314 318
205 209 219 207 200 206 208 215 220 217 217 213 215 211 217 217 219 217 221 224 222 212 202 195 196 200 199 200 186 188 188 187 185 186 188 187 190 190 186 187 185 191 196 197 190 181 179 176 178 178 172 165 167 172 172 182 173 193 213 222 227 226 241 245 260 269 268 287 295 300 301 300 304 308 307 298 293 293 301 313 317 314 309 285 290
231 240 231 212 201 206 208 214 212 212 220 214 216 211 222 222 225 227 230 234 227 218 214 205 207 213 208 173 180 180 174 187 190 191 189 192 194 188 180 188 195 202 200 192 177 186 183 183 183 175 164 165 170 170 175 178 167 189 196 209 224 235 243 242 232 226 243 254 275 287 291 296 301 301 302 301 294 292 298 304 307 303 305 302 291
219 244 246 240 234 225 209 217 219 214 218 208 221 212 224 221 224 226 227 227 229 226 221 216 220 217 190 170 188 185 200 202 198 196 192 193 191 190 189 194 201 204 197 185 189 183 183 187 176 173 172 171 174 172 169 172 179 185 194 205 202 223 229 219 215 225 229 245 270 279 291 296 302 307 309 309 296 295 296 297 299 298 283 265 279
225 224 232 242 231 232 230 224 227 226 225 223 224 221 227 228 227 228 227 229 230 231 228 229 229 215 190 195 195 198 205 209 206 200 202 199 198 193 195 202 202 205 203 193 186 185 182 175 180 178 170 172 171 170 168 170 184 192 197 192 206 215 224 230 227 228 231 234 259 276 288 295 305 315 320 317 307 298 291 291 292 296 284 254 262
214 220 232 239 237 223 228 237 232 235 230 232 230 229 232 231 231 231 234 235 237 233 236 234 226 207 195 195 198 205 211 223 215 210 210 207 206 207 207 209 210 209 204 192 175 179 173 178 176 174 176 177 176 173 169 181 188 190 190 195 196 206 221 225 225 222 221 231 248 262 275 293 303 308 308 311 306 298 295 292 294 293 294 272 247
234 238 240 234 224 225 229 241 232 232 237 235 238 236 235 232 235 233 237 239 239 238 243 242 235 197 198 193 195 203 215 220 219 216 214 211 212 211 209 210 209 208 205 191 172 180 173 171 172 177 180 181 180 175 179 183 181 186 191 190 201 212 221 223 228 228 223 230 239 252 254 279 296 301 306 303 298 294 289 290 294 294 292 274 248
243 255 249 238 241 246 250 243 246 239 237 240 241 240 235 240 240 240 241 244 240 240 239 240 234 210 205 194 197 203 217 217 217 217 216 213 213 213 212 209 205 202 197 184 161 162 170 172 168 168 171 182 178 171 173 172 169 180 190 193 199 206 213 218 218 212 212 224 240 250 246 255 278 293 299 300 297 293 290 286 287 292 293 288 257
239 249 252 259 257 247 255 248 244 249 251 251 249 247 240 237 238 242 240 244 246 243 243 243 237 224 212 205 206 210 219 222 221 221 219 216 214 215 212 206 201 200 188 175 160 152 159 168 159 166 174 180 172 180 180 176 177 182 178 180 191 203 207 203 204 196 214 235 242 245 250 255 264 274 285 288 293 290 287 284 285 290 283 286 266
237 245 251 252 257 256 253 251 249 246 246 244 248 251 247 239 242 242 243 246 246 246 248 243 237 231 225 220 219 223 224 227 228 227 226 225 223 221 215 209 205 194 181 158 157 164 179 175 168 171 178 181 187 190 193 185 188 183 184 189 199 208 206 205 206 222 232 236 245 246 248 253 261 266 277 287 286 283 280 282 281 277 277 278 269
249 250 251 254 254 257 257 254 250 247 246 248 246 250 246 244 242 243 244 244 246 247 247 244 240 237 230 226 225 228 228 228 232 230 227 225 224 219 213 205 194 179 175 172 166 172 167 168 167 174 178 171 174 183 191 184 186 192 191 197 198 209 210 212 219 224 229 235 240 240 244 250 255 258 269 278 282 283 280 280 274 276 273 268 261
252 255 258 256 260 262 263 259 258 258 252 249 249 248 248 250 246 247 246 246 245 247 246 246 243 241 237 236 232 232 232 234 234 234 230 225 222 215 206 200 193 189 170 171 171 171 172 165 165 169 169 173 176 186 189 182 187 185 190 193 195 198 208 211 219 226 232 237 245 243 244 245 251 245 243 243 252 271 279 278 280 280 277 268 258
260 259 262 262 257 256 258 257 257 254 253 256 256 255 254 250 250 248 247 246 247 244 242 244 246 242 241 241 236 234 234 234 234 232 228 224 216 211 193 191 189 180 176 175 171 171 172 172 171 174 175 176 181 180 183 181 190 185 193 186 202 208 211 214 218 220 224 230 237 238 231 230 234 234 225 226 234 253 261 271 276 276 278 270 254
265 264 259 263 259 261 258 260 256 259 262 258 257 261 258 256 257 254 251 251 251 249 247 245 246 244 241 242 237 237 232 233 233 233 229 224 214 202 190 185 180 180 184 179 175 167 173 171 170 175 177 177 175 180 179 178 183 186 189 198 206 211 215 219 221 223 222 226 228 234 230 227 223 223 221 218 209 234 251 261 264 272 272 270 254
269 266 261 260 261 263 265 262 263 261 258 257 258 259 263 261 259 257 256 253 253 254 250 247 246 246 244 242 239 237 237 237 237 233 230 222 213 202 197 183 184 179 188 175 171 165 173 172 174 179 177 177 181 184 182 185 182 187 198 205 208 213 216 217 219 224 225 225 229 227 210 212 213 223 226 221 208 213 240 254 262 263 266 259 255